Wright-Patt AFB, OH

7:58 AM EST on November 18, 2017 (GMT -0500)
Wright-Patterson Air Force Base

Weather History for KFFO - November, 2013

Change the Weather History Date:

Friday, November 8, 2013

  Actual Average Record
Temperature  
Mean Temperature 38 °F -  
Max Temperature 48 °F 52 °F 69 °F (2001)
Min Temperature 29 °F 34 °F 24 °F (2003)
Degree Days  
Heating Degree Days 26    
Moisture  
Dew Point 30 °F    
Average Humidity 70    
Maximum Humidity 90    
Minimum Humidity 44    
Precipitation  
Precipitation 0.00 in - - ()
Sea Level Pressure  
Sea Level Pressure 30.30 in    
Wind  
Wind Speed 6 mph (WSW)    
Max Wind Speed 10 mph    
Max Gust Speed -    
Visibility 10 miles    
Events      
Averages and records for this station are not official NWS values.
T = Trace of Precipitation, MM = Missing Value Source: NWS Daily Summary

Daily Weather History Graph

Daily Weather History Graph

Search for Another Location

Airport or City:

Trip Planner

Search our weather history database for the weather conditions in past years. The results will help you decide how hot, cold, wet, or windy it might be!

Date:

Astronomy

Nov. 08, 2013 Rise Set
Actual Time 7:13 AM EST 5:26 PM EST
Civil Twilight 6:44 AM EST 5:54 PM EST
Nautical Twilight 6:12 AM EST 6:26 PM EST
Astronomical Twilight 5:40 AM EST 6:58 PM EST
Moon 12:08 PM EST (11/8) 10:46 PM EST (11/8)
Length of Visible Light 11h 10m
Length of Day
10h 13m
Waxing Crescent, 33% of the Moon is Illuminated
Nov 8
Waxing Crescent
Nov 10
First Quarter
Nov 17
Full
Nov 25
Last Quarter
Dec 2
New

Hourly Weather History & Observations

Time (EST) Temp. Windchill Dew Point Humidity Pressure Visibility Wind Dir Wind Speed Gust Speed Precip Events Conditions
12:58 AM 39.2 °F 33.6 °F 29.3 °F 68% 30.22 in 10.0 mi West 8.1 mph - N/A   Clear
1:58 AM 38.1 °F 32.3 °F 32.2 °F 79% 30.24 in 10.0 mi WNW 8.1 mph - N/A   Clear
2:58 AM 37.6 °F 32.3 °F 32.0 °F 80% 30.26 in 10.0 mi West 6.9 mph - N/A   Clear
3:58 AM 34.5 °F 28.6 °F 30.7 °F 86% 30.26 in 10.0 mi West 6.9 mph - N/A   Clear
4:58 AM 32.7 °F 25.7 °F 29.8 °F 89% 30.28 in 10.0 mi WSW 8.1 mph - N/A   Clear
5:58 AM 31.8 °F 27.3 °F 28.8 °F 88% 30.29 in 10.0 mi WSW 4.6 mph - N/A   Clear
6:58 AM 29.8 °F 22.2 °F 27.1 °F 90% 30.32 in 10.0 mi SW 8.1 mph - N/A   Clear
7:58 AM 30.6 °F - 27.7 °F 89% 30.34 in 10.0 mi SSW 2.3 mph - N/A   Clear
8:58 AM 34.9 °F 30.8 °F 30.0 °F 82% 30.36 in 10.0 mi West 4.6 mph - N/A   Clear
9:58 AM 38.3 °F 35.9 °F 31.5 °F 76% 30.38 in 10.0 mi West 3.5 mph - N/A   Partly Cloudy
10:58 AM 40.6 °F 36.7 °F 32.0 °F 71% 30.38 in 10.0 mi Variable 5.8 mph - N/A   Partly Cloudy
11:38 AM 42.8 °F 38.6 °F 32.0 °F 66% 30.35 in 10.0 mi NW 6.9 mph - N/A   Mostly Cloudy
11:48 AM 42.8 °F 40.1 °F 32.0 °F 66% 30.35 in 10.0 mi Variable 4.6 mph - N/A   Scattered Clouds
11:58 AM 43.2 °F 38.4 °F 30.9 °F 62% 30.37 in 10.0 mi WNW 8.1 mph - N/A   Partly Cloudy
12:58 PM 46.6 °F - 30.6 °F 54% 30.34 in 10.0 mi WSW 10.4 mph - N/A   Scattered Clouds
1:58 PM 46.9 °F - 29.7 °F 51% 30.32 in 10.0 mi NW 9.2 mph - N/A   Clear
2:00 PM 46.4 °F 43.5 °F 28.4 °F 50% 30.29 in 10.0 mi Variable 5.8 mph - N/A   Scattered Clouds
2:55 PM 48.0 °F - 29.3 °F 48% 30.31 in 10.0 mi WSW 10.4 mph - N/A   Partly Cloudy
3:58 PM 47.8 °F - 26.8 °F 44% 30.31 in 10.0 mi West 8.1 mph - N/A   Clear
4:58 PM 45.9 °F 42.9 °F 28.4 °F 51% 30.30 in 10.0 mi WSW 5.8 mph - N/A   Clear
5:58 PM 39.6 °F 36.3 °F 28.4 °F 64% 30.30 in 10.0 mi SSW 4.6 mph - N/A   Clear
6:58 PM 40.3 °F - 28.2 °F 62% 30.30 in 10.0 mi SW 2.3 mph - N/A   Clear
7:18 PM 37.4 °F 34.9 °F 28.4 °F 70% 30.27 in 9.0 mi SSW 3.5 mph - N/A   Clear
7:48 PM 37.4 °F - 32.0 °F 81% 30.26 in 10.0 mi Calm Calm - N/A   Clear
7:58 PM 37.6 °F - 29.7 °F 73% 30.30 in 10.0 mi Calm Calm - N/A   Clear
8:58 PM 38.1 °F - 29.1 °F 70% 30.29 in 10.0 mi SE 2.3 mph - N/A   Clear
9:58 PM 38.3 °F 35.9 °F 29.3 °F 70% 30.28 in 10.0 mi SE 3.5 mph - N/A   Mostly Cloudy
10:58 PM 38.1 °F - 29.7 °F 72% 30.27 in 10.0 mi Calm Calm - N/A   Mostly Cloudy
11:58 PM 38.8 °F - 30.2 °F 71% 30.26 in 10.0 mi Calm Calm - N/A   Mostly Cloudy